OBJECT A, 60745

Orbit data source: Space-Track

You're viewing an Uncataloged Satellite

Recently launched and/or uncataloged satellites may have evolving metadata. Metadata may include but not limited to: Owner, Maufacturer, Bus, Motor, and Mission.

OBJECT A, 60745 is a satellite owned by Yunyao yuhang (CN) in SSO that was launched on Thu, 29 Aug 2024 UTC via a GUSHENXING 1 launch vehicle from the Yellow Sea Launch Area, China (YSLA). Unknown objects in Earth's orbit typically refer to objects detected orbiting the Earth but have not yet been identified or cataloged. These objects could be anything from previously untracked satellites, spent rocket stages, debris from satellite collisions, or even natural meteoroids temporarily captured by Earth's gravity.

Loading next visibility...
Identifier
60745, 2024-153A
Orbit
SSO
Last TLE update
8 hours ago
Origin
Flag of CNYYAO (CN / PRC)
Manufacturer
Changguang WJ
Mission
Operational Commercial Weather
Bus & Motor
YY-1, Unknown motor
Mass
~50 kg wet, ~50 kg dry
Launch date (UTC)
2024-08-29 (8 months ago)
Launch vehicle
GUSHENXING 1
Launch site
Yellow Sea Launch Area, China (YSLA)
Object type
Unknown
Shape & HBR
Box + 1 Pan, 5 m
Radar Cross Section
5.339 m², Medium (>0.1 m² and < 1m²)

Expand to show TLE details & history

TLE from 8 hours ago
0 OBJECT A
1 60745U 24153A   25129.54326513  .00009628  00000-0  45008-3 0  9990
2 60745  97.6346 253.6733 0014296 127.5687 232.6848 15.19910935 38351
Epoch: 2025-05-09T13:02Z
Definitive object data (Epoch: 2025-05-09T13:02:18.107Z)
Latitude
-0.00004°
Longitude
-169.50004°
Altitude
515.169 km
Speed
7.603 km/s
True Right ascension
16h 54m 41s
True Declination
0° 00' 00"
Sunlit
Object was in full shadow at TLE epoch
Visualization TLE readout
Latitude
55.73159°
Longitude
179.56067°
Altitude
512.021 km
Speed
7.615 km/s
Apparent Right ascension
16h 50m 48s
Apparent Declination
10° 26' 32"
Sunlit
Object is in daylight
Visualization observer readout
Local Sidereal Time
05:22:23
Azimuth
10.028° NNE
Elevation
-39.111°
Doppler factor
1
Orbital elements
Apogee altitude
512.923 km
Perigee altitude
493.248 km
Semi-major axis
6,881.222 km
Eccentricity
0.0014296
Inclination
97.6346°
RAAN
253.6733°
Arg. of periapsis
127.5687°
True anomaly
232.55465°
Mean anomaly
232.6848°
Eccentric anomaly
232.61971°
Mean motion
3.80229 °/min
BSTAR
0.00045008
Orbital period
94.68 mins
Loading maneuver chart data...
Loading SW <> Apogee altitude chart data...
Loading historical data...
Loading historical data...
Loading historical data...
Loading historical data...
Loading historical data...
Loading historical data...
Loading historical data...

OBJECT A Visibility forecast

Observer location: undefined°, undefined°

Span
Click to sort rows by Start time (UTC) header in descending order
Start Az.
Max El. time (UTC)
Max El. Az.
Max El.
End time (UTC)
End Az.
6 mins2025-05-09 21:30:08.144Z353.485° N2025-05-09 21:33:08.144Z265.955° W33.655°2025-05-09 21:36:08.144Z214.196° SW
6 mins2025-05-10 08:08:08.144Z156.016° SSE2025-05-10 08:10:08.144Z125.4° SE40.648°2025-05-10 08:14:08.144Z353.158° N
|